{"data":{"norad_id":47804,"epoch":"2026-05-24T16:23:48.888672Z","epoch_age_seconds":112570,"freshness":"FRESH","line1":"1 47804U 21018T   26144.68320473  .00004222  00000+0  14767-3 0  9992","line2":"2 47804  53.1574 236.7314 0001184  89.8768 270.2369 15.31717029288537","mean_motion":15.31717029,"eccentricity":0.0001184,"inclination_deg":53.1574,"raan_deg":236.7314,"arg_perigee_deg":89.8768,"mean_anomaly_deg":270.2369,"bstar":0.00014767,"rev_number":28853,"period_min":94.012142761129,"perigee_km":469.87833210706,"apogee_km":471.50013415907,"semimajor_km":6848.8262331331,"source":"CELESTRAK","updated_at":"2026-05-25T13:38:16.600490Z"}}